Find Starlink 5699

NORAD ID: 55449 Int'l Des: 2023-015 Owner: SPXS Country: US Constellation: starlink operational
LEOCIRCULAR

現在のビュー

3D地球を読み込み中...

About Starlink 5699

Starlink 5699 (NORAD 55449) is a starlink constellation satellite (v1.5) launched Feb 2, 2023 by SPXS of US. It operates in LEO, CIRCULAR orbit with a mass of 305.00 kg.

次回通過

Passes for default location (London). Set your location on the main map for personalized predictions.

高度履歴

Loading altitude history...

軌道要素

1 55449U 23015A 26265.40616663 -.00000007 00000-0 92772-5 0 9991
2 55449 43.0057 298.0865 0001297 325.1632 34.9135 15.27576011201741
Epoch: Sep 22, 2026 • Age: 22 hours

現在のステータス

高度 488.5 km
遠地点 / 近地点 N/A
速度 7.62 km/s
衛星直下点 -25.36°S, 147.19°E
打ち上げ日 Feb 2, 2023
運用期間 3.6 years
タイプ internet

技術仕様

分類 Payload
質量 305.00 kg
乾燥質量 290.00 kg
長さ 0.20 m
スパン 9.00 m
形状 ? Box + pan
製造者 SPXS
バスタイプ Starlink
フェーズステータス In Orbit
所有者/国 SPXS/US

Most Searched